Lapse_Rate
4.0 3.1 2.4 2.8 6.4 6.5 6.5 6.5 6.5 6.5 6.5 6.3 5.7 5.4 6.2 5.9 6.4 6.5 5.2 3.5 5.1 5.1 6.2 7.2 9.6 9.6 9.6 9.6 9.6 9.5 9.5 9.1 9.0 9.2 9.0 8.9 9.1 8.9 9.0 8.8 9.0 8.7 8.9 9.0 9.1 9.3 8.7 9.2 9.0
3.1 3.7 1.6 2.3 6.5 6.5 6.5 6.5 6.5 6.5 5.9 4.6 5.0 5.9 5.6 6.5 6.5 6.4 4.9 3.9 4.6 4.9 5.7 7.0 9.2 9.6 9.6 9.5 9.6 9.5 9.5 9.3 9.3 9.4 9.2 9.2 9.3 9.0 8.9 9.1 8.8 9.3 9.0 9.0 9.2 9.1 8.8 9.1 8.8
3.9 3.9 3.1 6.5 6.5 6.5 6.5 6.5 6.5 6.2 5.7 6.3 5.6 5.1 5.9 6.4 6.9 5.3 3.7 4.6 4.5 4.3 5.2 6.9 8.2 8.6 8.5 9.4 9.6 9.5 9.5 9.5 9.5 9.4 9.3 9.4 9.5 9.2 9.4 9.1 9.4 8.8 9.1 8.8 9.0 9.2 8.8 9.1 9.2
3.9 2.4 2.6 6.5 6.5 6.5 6.5 6.5 6.2 6.0 5.9 4.9 4.9 6.1 6.0 5.4 5.5 4.3 4.7 4.5 3.4 3.2 4.3 6.2 7.7 7.9 8.1 8.4 9.5 9.5 9.5 9.5 9.5 9.5 9.5 9.5 9.0 9.2 9.1 9.0 8.8 8.8 8.7 8.7 8.6 8.8 8.9 8.7 8.8
1.2 2.1 6.5 6.5 6.5 6.5 6.5 6.3 6.1 6.4 6.0 5.2 5.8 6.5 6.2 5.1 3.6 3.3 3.1 3.6 2.6 2.6 3.6 5.1 7.2 7.3 7.2 7.4 9.3 9.3 9.4 9.5 9.5 9.3 9.3 9.2 9.1 9.0 9.3 9.2 8.9 9.0 8.9 8.8 8.9 8.8 8.8 8.9 8.4
3.2 3.3 6.5 6.5 6.5 6.5 6.4 5.8 5.9 6.1 6.1 5.9 5.2 5.7 5.9 5.1 4.7 3.0 2.6 2.0 3.3 3.4 4.2 4.6 5.3 6.0 6.2 6.7 8.3 8.6 9.3 9.4 9.4 9.3 9.3 9.2 8.9 7.6 8.4 8.8 9.2 9.1 9.1 8.9 9.0 9.1 8.9 8.8 9.0
5.5 6.5 6.5 6.5 6.5 6.5 6.5 5.5 5.8 5.9 6.2 5.9 5.1 6.4 5.9 5.5 4.0 2.7 1.9 2.7 3.5 4.1 4.4 4.4 4.2 4.4 4.7 5.7 6.7 6.7 7.0 7.2 6.9 7.1 6.8 6.1 4.4 4.3 4.5 6.5 7.9 9.1 9.3 8.9 9.0 8.8 9.1 8.8 8.9
2.0 5.9 6.5 6.5 6.5 6.5 6.1 5.9 5.6 5.4 6.4 6.0 5.9 6.2 6.1 5.7 4.0 3.2 2.6 2.6 3.3 3.9 4.2 3.8 4.2 4.2 4.4 4.2 5.1 5.4 6.1 5.6 4.6 4.1 4.0 3.4 2.4 3.1 3.5 4.5 6.3 9.1 9.2 9.3 9.0 8.7 8.7 9.0 8.6
3.8 6.5 6.5 6.5 6.5 6.5 5.6 6.3 6.0 4.8 5.1 5.3 5.2 5.1 4.3 4.1 3.8 3.4 2.9 3.2 3.4 4.5 3.8 4.0 3.8 4.0 3.9 4.4 3.1 3.1 4.1 3.7 3.2 2.4 2.7 1.3 1.2 1.6 3.1 3.9 5.5 6.8 6.8 9.2 9.1 9.2 8.6 8.7 7.3
4.7 6.5 6.5 6.4 6.4 6.5 5.9 5.7 5.2 5.7 5.7 5.9 5.2 4.0 3.2 2.6 2.4 2.6 3.8 3.9 4.5 4.4 3.8 3.7 3.6 3.3 3.4 3.8 2.8 2.8 2.5 2.3 1.9 1.4 1.1 1.1 1.4 2.0 3.4 3.1 4.5 4.8 5.3 5.5 6.3 6.9 8.1 6.2 5.4
5.8 6.5 6.5 6.1 5.1 4.9 5.5 5.8 5.7 4.8 6.5 5.1 5.0 4.4 4.2 2.7 2.4 3.7 4.7 4.8 4.9 5.1 4.0 3.9 3.6 3.5 3.0 2.5 2.6 2.2 2.1 1.9 1.5 1.4 1.4 1.3 1.3 1.4 1.5 1.8 2.5 2.9 4.3 3.8 4.3 5.0 4.8 4.7 5.1
6.4 5.8 6.0 6.3 5.2 5.3 6.0 5.1 5.6 5.7 5.9 4.4 4.0 4.0 3.5 2.9 4.1 4.9 5.1 4.7 4.2 4.5 4.2 4.1 3.9 3.3 3.0 2.8 2.2 1.8 1.7 1.6 0.9 1.0 1.9 1.4 0.7 0.7 0.9 1.5 2.3 2.7 3.4 3.6 4.7 5.1 5.4 5.1 5.4
6.4 6.4 5.0 4.4 3.8 4.0 4.9 5.7 5.7 5.5 4.0 3.6 3.5 3.3 2.6 3.1 4.5 4.5 4.9 4.2 4.2 4.1 3.8 3.4 4.0 3.2 2.8 2.7 2.3 2.3 1.8 1.7 1.8 2.3 2.9 2.8 1.9 1.2 1.7 2.1 2.6 3.0 3.2 3.6 4.0 4.7 5.7 7.4 8.4
5.6 5.2 5.7 5.3 5.4 5.3 5.9 6.1 6.1 5.7 4.4 3.6 3.6 2.7 2.5 3.6 4.3 5.1 5.0 4.7 4.0 3.8 3.6 3.0 4.0 3.6 3.4 2.6 2.5 2.4 2.8 2.9 3.0 3.1 3.6 3.8 3.4 3.0 2.9 2.7 3.1 3.3 3.8 4.0 4.4 4.6 5.1 6.4 6.8
5.4 6.5 6.4 6.2 6.1 6.3 4.7 6.5 6.5 4.3 3.6 3.1 3.1 2.6 3.2 4.0 4.2 4.9 4.8 4.9 4.4 3.8 3.5 3.4 4.8 4.2 3.2 2.8 3.2 3.1 3.2 3.1 2.8 3.5 4.0 4.2 4.6 4.7 4.6 3.8 3.6 4.0 4.4 4.5 4.8 4.9 5.5 6.3 6.2
6.5 6.5 6.5 6.5 6.1 5.9 6.3 6.5 6.4 3.0 2.9 3.2 2.9 3.1 3.7 4.2 4.8 4.7 4.6 4.8 4.5 3.5 3.2 3.3 4.3 3.7 3.7 3.5 3.4 3.3 3.6 2.9 2.8 3.1 3.5 4.8 5.3 5.4 4.5 3.7 3.9 5.2 5.3 5.2 5.3 6.0 7.3 7.9 5.9
6.5 6.5 6.5 6.5 5.6 6.4 6.5 6.5 6.1 3.6 3.7 3.4 2.3 2.8 3.7 4.0 4.6 4.7 4.7 4.9 4.7 3.3 2.9 3.3 3.0 3.2 3.4 3.8 3.8 3.7 3.6 3.3 3.3 3.6 4.2 5.1 5.5 5.6 4.5 4.2 4.9 5.5 5.4 5.8 6.3 7.2 7.1 7.2 5.7
6.5 6.5 6.5 6.5 6.5 6.5 6.5 6.5 6.4 4.5 3.9 3.2 2.4 2.7 3.2 3.3 4.1 4.5 4.7 4.8 4.2 3.3 3.0 2.9 3.3 3.4 3.3 3.5 3.5 3.6 3.3 3.7 4.1 4.3 5.0 5.4 5.1 5.1 4.5 5.8 5.8 6.2 6.1 6.1 6.4 6.9 6.8 6.0 5.8
6.5 6.5 6.5 6.5 6.5 6.5 6.5 6.5 6.5 4.7 4.9 3.6 2.4 2.3 2.3 3.0 4.2 4.5 4.7 4.2 3.5 3.7 3.2 3.0 3.2 3.1 2.5 2.1 1.7 1.3 1.4 1.5 2.7 4.3 4.9 5.2 5.0 4.5 4.9 6.6 6.6 6.8 6.2 6.6 6.2 6.4 6.8 5.0 6.6
6.5 6.5 6.5 6.5 6.5 6.5 6.5 6.5 6.5 5.6 5.2 3.3 2.4 2.0 2.1 4.1 3.9 4.6 5.0 4.2 2.9 2.4 2.8 3.2 3.4 3.3 2.9 2.6 2.2 1.7 1.4 1.8 2.7 3.9 4.4 5.2 4.8 4.6 5.7 6.2 6.8 7.0 6.6 6.5 6.5 6.5 6.4 6.1 6.2
6.5 6.5 6.5 6.5 6.5 6.5 6.5 6.5 6.5 6.5 5.9 4.6 3.5 2.4 2.7 2.9 3.4 4.4 5.1 4.4 2.8 2.9 2.8 3.4 3.2 3.1 3.2 2.8 2.5 1.8 1.5 1.8 1.6 3.1 3.6 4.6 4.7 4.7 5.5 6.1 6.5 6.5 6.3 6.3 5.9 6.0 5.7 6.3 6.6
6.5 6.5 6.5 6.5 6.5 6.5 6.5 6.5 6.5 6.5 6.5 6.0 3.6 2.4 2.2 3.1 3.8 4.2 5.0 4.8 4.1 3.6 2.8 3.1 3.2 3.2 4.0 2.8 2.3 1.6 1.6 1.7 2.3 2.4 2.9 3.8 5.0 4.5 4.7 5.3 6.0 5.4 6.4 6.1 6.0 6.8 6.2 5.9 6.3
6.5 6.5 6.5 6.5 6.5 6.5 6.5 6.5 6.5 6.5 6.5 6.5 4.1 2.0 1.6 2.1 2.8 3.5 4.1 4.7 5.0 3.8 2.8 2.7 3.0 3.3 2.8 2.5 2.3 1.5 1.7 1.4 2.0 2.2 2.4 2.9 3.8 4.8 4.7 5.0 5.0 4.8 5.0 5.9 6.2 6.4 6.5 6.3 6.5
6.5 6.5 6.5 6.5 6.5 6.5 6.5 6.5 6.5 6.5 6.5 6.5 4.8 2.1 1.8 2.2 2.4 3.2 4.1 5.0 4.3 3.3 2.8 3.0 2.9 3.0 2.5 2.4 2.5 2.2 2.0 1.9 1.8 2.1 2.4 2.9 3.2 3.8 4.7 5.0 4.9 4.9 4.7 4.9 6.0 6.1 6.5 5.8 6.6
6.5 6.5 6.5 6.5 6.5 6.5 6.5 6.5 6.5 6.5 6.5 6.2 5.1 2.1 1.4 1.6 2.2 3.0 3.8 3.9 4.4 4.0 2.9 3.5 2.6 2.8 2.3 2.4 2.5 2.3 2.2 2.5 2.2 2.3 2.2 2.6 3.1 3.4 4.4 4.4 4.7 4.8 4.9 4.9 6.1 5.6 6.1 6.2 6.1
6.5 6.5 6.5 6.5 6.5 6.5 6.5 6.5 6.5 6.5 5.7 4.9 2.9 1.8 1.5 1.9 2.2 2.7 3.5 3.3 3.6 4.0 3.1 2.7 2.6 2.5 2.3 2.1 2.5 2.2 2.3 2.1 2.3 2.3 2.4 2.7 2.6 3.2 4.3 4.2 4.7 4.8 5.2 5.3 4.7 4.4 5.6 6.8 5.4
6.5 6.5 6.5 6.5 6.5 6.5 6.5 6.5 6.5 6.5 6.5 5.5 3.8 2.4 1.8 2.0 2.1 2.6 3.3 2.7 3.1 2.8 2.9 2.6 2.5 2.3 2.2 1.8 1.7 2.1 1.7 2.0 1.9 2.1 2.4 2.4 2.7 4.4 4.6 4.1 3.7 4.3 4.8 5.1 5.2 4.9 5.6 7.1 6.9
6.5 6.5 6.5 6.5 6.5 6.5 6.5 6.5 6.5 6.5 6.5 6.6 5.6 3.0 1.8 2.0 2.3 2.4 2.5 2.3 2.5 2.5 2.1 2.0 2.0 2.1 1.7 1.4 1.4 1.9 1.1 1.5 1.7 1.8 2.3 2.4 2.5 3.2 3.2 3.4 3.4 3.8 4.6 5.2 5.1 4.8 5.4 6.6 5.2
6.5 6.5 6.5 6.5 6.5 6.5 6.5 6.5 6.5 6.5 6.5 6.5 4.6 1.7 1.2 1.2 1.5 1.6 1.8 2.0 2.1 1.8 1.7 1.9 1.9 1.9 1.7 1.4 1.1 0.9 1.1 1.2 1.2 1.5 1.7 1.9 2.4 2.8 3.0 2.9 4.3 4.0 4.8 5.0 4.8 4.9 5.5 5.0 4.8
6.5 6.5 6.5 6.5 6.5 6.5 6.5 6.5 6.5 6.5 5.9 3.8 2.4 0.8 0.3 1.0 1.2 1.3 1.5 1.6 1.4 1.4 1.6 1.6 1.3 1.4 1.2 0.8 0.6 0.9 0.6 0.8 1.1 1.3 1.5 2.1 2.3 3.0 2.9 3.0 3.7 4.8 4.2 4.7 4.5 4.7 5.1 4.7 4.7
Wind_Speed
2 7 3 4 4 5 2 1 1 3 4 4 1 7 8 4 4 3 3 7 8 9 14 16 15 16 17 18 19 19 17 18 17 18 20 20 20 20 21 21 22 23 23 22 20 21 23 24 22
6 3 4 2 4 2 2 1 3 2 6 7 6 3 6 3 2 3 4 7 10 11 17 17 16 16 17 18 18 18 16 16 18 18 18 19 19 20 21 20 20 21 21 23 21 21 20 22 22
4 3 3 4 3 2 2 2 5 4 5 1 4 5 3 2 2 3 4 5 13 17 17 17 16 17 18 18 17 15 17 17 16 15 16 18 19 19 20 19 20 19 20 21 21 22 21 19 20
2 4 4 4 3 2 1 4 7 7 4 6 3 6 3 3 2 1 2 6 11 12 15 16 16 17 18 17 16 14 14 15 15 14 15 16 16 17 19 19 19 19 19 21 19 21 22 22 21
4 3 4 4 2 2 2 3 1 3 3 4 1 4 4 3 4 5 6 9 7 10 15 17 17 18 18 17 15 16 15 13 14 14 14 17 18 17 20 19 18 18 20 20 20 21 22 24 21
4 3 4 2 3 2 2 2 3 3 2 2 5 4 2 1 3 4 7 7 9 9 11 15 16 18 18 18 16 16 16 15 15 16 16 18 20 20 20 18 18 18 21 20 19 21 21 23 24
5 4 2 4 6 3 4 2 3 4 2 4 5 4 3 2 3 5 6 8 9 10 12 13 14 15 15 17 17 16 15 16 16 16 18 20 20 19 19 18 18 21 22 22 21 21 22 22 21
4 4 4 2 5 4 4 3 2 3 2 2 2 4 3 2 4 4 5 6 7 10 12 13 13 14 15 13 16 15 15 15 16 18 20 20 19 20 19 18 20 22 23 23 21 20 22 22 22
2 4 2 6 6 4 4 4 2 1 5 3 3 4 5 4 4 5 6 6 6 6 8 11 11 13 14 10 13 14 14 15 17 17 18 18 19 20 17 19 21 22 23 23 24 22 21 22 23
5 4 2 1 3 5 3 3 5 4 3 3 4 5 5 5 5 6 4 4 4 5 5 8 10 12 12 9 13 13 12 16 15 18 17 17 15 17 18 18 19 21 21 20 21 21 21 21 14
3 3 2 6 5 7 5 3 2 8 1 4 6 6 4 3 6 5 2 2 2 2 3 6 9 10 10 10 11 14 13 15 14 15 14 16 16 18 16 16 16 16 16 12 15 13 14 14 15
6 5 3 3 3 5 5 5 4 2 2 6 8 6 4 5 3 1 2 3 4 4 4 6 9 9 10 12 11 13 15 14 15 14 14 14 13 13 13 11 13 13 13 12 12 11 15 14 15
5 2 5 5 8 6 6 4 4 4 5 7 8 7 7 5 2 1 1 3 3 5 5 6 8 9 8 10 10 11 12 12 12 12 14 15 13 10 13 11 12 12 13 11 10 10 13 14 15
3 7 4 4 3 3 5 3 1 5 5 7 7 6 5 5 3 1 3 3 4 5 6 6 6 9 9 9 10 9 10 11 12 13 15 18 17 14 12 11 11 12 12 12 11 10 9 8 13
4 5 3 1 2 2 6 1 5 5 6 8 6 5 4 3 3 2 2 2 2 3 5 6 5 9 10 9 11 11 11 12 13 15 18 20 19 17 15 11 10 12 14 14 12 11 9 6 10
4 4 2 2 4 2 1 5 3 7 9 7 6 4 4 2 2 1 2 1 3 4 5 6 7 9 10 10 12 12 14 14 15 16 18 20 19 18 14 9 9 14 13 11 8 6 6 6 7
5 1 2 2 6 4 2 3 4 6 7 7 6 5 4 3 2 1 1 0 3 4 5 6 6 6 8 11 12 12 12 12 14 14 16 19 19 19 14 11 12 14 11 8 6 7 7 8 8
2 1 3 4 4 3 4 7 2 6 7 9 7 5 5 5 4 2 2 2 4 4 4 5 5 6 9 9 11 10 11 12 13 14 14 17 16 17 14 12 13 15 7 7 7 7 8 5 8
2 2 3 2 4 4 6 6 6 7 5 7 6 6 6 6 3 2 1 4 5 3 6 5 6 6 3 2 3 3 3 3 5 14 18 17 16 15 14 11 12 13 6 8 10 6 7 5 7
2 2 3 1 2 5 1 8 5 6 6 7 8 7 7 3 3 2 1 3 2 4 5 5 6 5 3 2 2 2 3 3 5 12 14 18 18 17 13 11 8 9 5 6 6 6 5 4 6
1 2 1 2 1 1 6 4 1 1 2 4 4 5 5 6 5 4 3 2 2 4 5 5 6 5 3 6 3 5 3 4 3 6 4 12 16 17 14 13 11 8 4 5 6 6 6 6 7
2 1 1 1 3 2 3 4 2 2 5 4 6 6 7 6 4 3 2 3 3 3 4 4 5 4 4 6 3 4 2 2 3 3 4 10 16 15 15 15 13 10 8 7 6 6 6 6 8
1 2 2 2 2 3 1 3 4 1 6 9 9 8 7 7 6 6 5 4 2 2 3 3 4 4 4 4 3 3 4 3 3 4 7 6 11 15 15 14 13 10 8 8 9 9 7 6 3
3 3 5 4 3 2 0 3 4 4 6 2 5 8 7 7 7 6 5 3 2 2 3 3 4 3 5 4 4 4 5 6 5 5 5 5 5 7 12 14 11 11 9 8 7 8 8 7 7
4 4 4 4 4 4 2 2 8 4 5 4 9 9 8 8 6 6 6 4 1 3 3 2 3 3 4 4 4 5 5 5 6 6 4 6 5 4 7 10 8 6 10 10 10 7 7 7 7
2 4 4 3 2 5 0 5 3 1 3 2 6 7 7 7 6 7 6 4 2 2 1 1 3 4 5 5 5 5 5 3 4 4 4 4 3 5 8 11 10 10 11 11 9 4 5 6 5
3 2 3 6 1 2 3 6 2 1 3 3 6 6 8 8 7 7 6 5 3 3 3 2 3 3 4 4 4 5 5 5 5 6 4 3 4 5 10 11 7 10 9 8 8 4 6 6 6
1 5 3 3 1 4 5 5 5 6 9 8 8 9 9 7 7 7 6 5 4 4 3 2 2 3 4 4 3 3 4 4 5 5 6 6 6 7 7 7 6 6 7 7 5 5 7 6 5
1 1 5 4 3 4 2 7 6 8 8 12 12 10 10 9 8 7 6 5 4 3 3 3 2 3 4 4 4 4 5 5 5 5 5 6 6 7 6 6 7 6 7 6 6 6 6 6 7
1 4 5 5 4 1 3 6 3 6 5 8 9 10 9 7 8 7 7 6 5 5 3 3 2 3 4 4 4 4 4 4 5 5 6 7 6 8 6 6 8 7 6 6 6 6 6 6 7
Wind_Direction
60 107 76 47 66 69 104 70 103 89 71 352 31 79 110 62 49 127 144 14 55 37 18 12 11 360 357 353 349 344 343 357 1 355 358 357 351 350 354 349 348 342 338 340 338 330 325 314 310
113 104 47 75 85 77 265 27 76 32 131 144 77 66 50 80 59 86 53 360 51 39 23 7 8 4 359 357 352 346 346 353 353 347 358 351 347 351 350 346 344 344 335 334 331 333 330 320 318
124 56 81 88 84 129 158 110 113 92 127 116 98 56 89 28 46 72 327 37 49 34 24 8 11 7 3 357 355 356 351 355 350 350 359 353 348 354 353 347 344 341 342 335 332 325 332 321 316
166 21 38 77 86 15 59 154 127 130 84 57 114 71 64 43 63 69 63 58 65 42 33 16 17 11 3 357 355 352 358 357 354 358 356 354 358 358 351 353 344 344 337 337 337 327 324 328 328
40 61 64 72 100 84 19 71 222 79 87 15 58 139 81 46 97 66 49 51 62 46 38 30 19 12 8 6 8 5 1 357 2 3 356 352 355 352 343 346 341 343 335 334 337 336 329 315 323
45 90 69 160 136 98 75 36 82 76 88 129 75 94 81 65 78 38 53 60 59 60 42 37 25 18 15 11 7 8 7 10 5 1 1 359 353 347 347 341 345 335 337 332 333 330 330 323 318
105 77 119 112 148 159 153 88 69 103 80 36 135 86 146 85 107 67 63 64 58 50 41 29 24 18 13 9 6 7 3 5 5 5 355 356 354 348 349 350 346 341 337 331 333 332 329 322 324
98 92 105 127 179 188 147 83 104 81 111 102 73 142 172 150 105 72 55 50 48 38 32 20 18 17 12 14 6 12 15 17 10 1 354 358 3 358 350 349 340 341 339 332 324 330 326 326 322
74 65 132 179 161 145 160 117 35 39 95 60 30 102 112 94 75 46 25 13 14 16 21 18 18 14 13 24 19 28 21 18 10 9 3 3 3 357 352 346 340 340 336 330 332 322 325 327 334
61 86 165 29 125 143 117 106 142 101 95 63 70 63 76 63 66 64 44 14 8 3 352 16 16 15 22 26 24 19 19 12 6 8 8 4 352 352 350 346 342 343 336 336 333 330 326 326 316
22 109 114 13 87 110 120 93 83 124 153 191 173 156 123 85 60 64 24 8 346 333 354 359 7 19 25 20 17 16 9 3 3 3 1 355 352 350 345 337 332 328 331 318 321 313 312 308 308
88 35 79 119 108 95 115 119 81 56 90 123 134 138 112 118 108 90 7 13 7 359 347 346 4 15 16 15 14 12 6 1 357 350 348 348 342 338 333 323 319 314 314 309 312 311 304 287 294
76 118 50 78 83 79 107 74 130 118 119 97 110 98 122 142 152 233 0 37 9 6 343 348 1 9 9 14 8 3 1 358 346 340 333 340 336 330 328 318 318 313 312 304 306 304 316 301 314
62 88 104 38 79 99 108 115 72 202 131 109 112 116 139 150 183 101 41 32 15 343 350 336 359 9 9 6 356 342 340 342 339 333 329 327 326 323 323 318 314 308 305 303 309 302 304 311 311
113 77 59 95 163 124 128 251 227 140 125 129 126 138 137 130 93 55 29 74 354 331 332 344 340 4 6 355 343 336 323 320 321 319 321 323 321 317 313 307 303 300 304 304 309 297 291 313 307
71 69 44 213 157 150 78 271 165 154 132 153 156 158 155 170 173 51 73 75 8 357 341 322 347 353 356 346 342 338 331 325 326 325 324 323 318 314 308 304 300 302 304 299 292 298 308 308 301
19 211 230 286 200 136 157 260 166 165 150 172 185 182 180 190 191 118 105 78 351 344 333 342 348 348 341 344 344 339 340 346 344 343 337 334 332 327 320 310 303 309 306 305 296 304 308 306 306
254 227 258 252 205 156 188 252 190 182 162 188 182 192 202 205 221 143 77 7 335 346 344 346 346 348 349 346 341 347 345 347 352 348 340 335 333 330 322 313 310 313 309 308 306 300 305 288 290
130 187 240 222 167 156 217 270 222 193 171 183 185 202 221 214 191 136 53 345 342 359 350 346 337 337 0 332 332 325 320 316 331 340 336 339 336 333 328 322 321 322 308 299 300 308 307 304 301
170 233 265 340 135 176 174 256 255 178 211 184 187 206 217 207 201 217 292 354 350 313 319 336 341 343 339 337 317 285 291 297 294 319 330 346 342 331 329 324 322 334 329 309 320 309 312 287 299
164 203 239 247 36 209 330 294 297 213 146 143 188 194 202 201 211 224 256 320 323 322 323 333 330 339 339 352 340 336 334 317 325 342 332 328 329 333 328 321 334 323 319 310 305 302 292 304 310
315 91 95 96 50 277 26 288 288 248 233 212 201 199 208 208 186 210 239 295 304 300 320 330 336 350 349 356 5 3 325 313 287 287 303 321 334 330 336 333 338 334 335 332 317 309 304 293 311
200 58 60 67 92 31 1 71 261 327 262 233 215 217 220 220 204 219 232 249 293 321 325 324 336 2 353 358 349 352 338 288 294 313 329 322 326 340 340 338 334 340 335 328 337 343 325 312 318
132 75 50 56 76 4 151 117 272 200 213 255 188 209 204 208 213 224 235 230 259 324 4 1 1 342 354 351 348 354 332 324 329 330 332 328 323 318 335 341 337 334 341 335 333 332 341 355 349
76 56 342 350 10 233 140 50 247 237 222 216 197 192 195 204 199 212 220 220 245 2 349 327 1 333 334 335 346 345 329 325 320 322 320 329 328 321 328 333 333 332 334 339 341 342 340 354 350
128 135 145 283 299 285 313 244 255 240 130 74 172 166 175 195 202 213 209 192 215 267 277 297 340 334 335 335 320 331 329 317 308 310 317 310 300 306 309 326 333 333 332 337 333 329 339 342 347
158 112 164 103 26 2 251 287 265 108 172 152 169 160 195 202 206 212 203 188 197 239 259 288 315 313 319 326 314 318 329 334 321 315 302 305 307 322 330 329 332 332 328 334 337 342 337 346 352
142 151 75 23 104 295 291 282 248 231 224 210 211 206 211 209 205 204 202 198 209 223 235 249 266 278 293 309 323 314 309 315 311 317 324 315 312 328 326 329 326 328 329 331 339 334 342 354 342
108 106 54 113 111 168 304 276 209 206 198 199 213 204 202 203 201 199 203 204 202 220 230 251 296 306 316 328 320 326 328 322 326 316 315 310 309 328 331 328 323 326 332 333 339 334 347 348 338
165 172 147 118 224 63 142 273 190 213 206 194 201 203 199 201 196 193 194 193 202 220 231 237 265 286 292 298 298 305 305 319 328 320 315 317 316 321 315 327 331 336 331 328 344 339 348 349 344